Flag for Switzerland Weather past 2 weeks in Lugano, Switzerland

Now
63 °F

Fog.


Feels Like: 63 °F
Forecast: 55 / 69 °F
Wind: 1 mph from North

Location: Lugano Airport

Current Time: Sep 17, 2014 at 6:28:11 AM

Latest Report: Sep 17, 2014 at 5:50 AM


Visibility: 2 mi

Pressure: 30.04 "Hg

Humidity: 94%

Dew point: 61 °F

Location of LuganoLocation

Historic Weather in Lugano — Graph

°F

Lugano temperature yesterday

Maximum temperature yesterday: 73 °F (at 1:20 PM)
Minimum temperature yesterday: 61 °F (at 2:20 AM)
Average temperature yesterday: 66 °F

Past Weeks' High & Low Weather Summary

 TemperatureHumidityPressure
High81 °F (Sep 2, 3:20 PM)100% (Sep 4, 2:50 AM)30.07 "Hg (Sep 4, 2:50 AM)
Low52 °F (Sep 3, 4:50 AM)23% (Sep 2, 5:20 PM)29.77 "Hg (Sep 11, 5:20 PM)
Average66 °F77%29.96 "Hg
* Reported Sep 2 5:20 AM — Sep 17 5:20 AM, Lugano, Weather by CustomWeather, © 2014

Note: Actual official high and low records may vary slightly from our data, if they occured in-between our weather recording intervals... More about our weather records

Advertising

Lugano weather history for previous 24 hours

 ConditionsComfort  
Time TempWeatherWind HumidityBarometerVisibility
5:20 AM
Sep 17
63 °FFog.3 mph94%30.04 "Hg2 mi
4:50 AM63 °FFog.3 mph94%30.04 "Hg2 mi
4:20 AM63 °FFog.6 mph94%30.04 "Hg2 mi
3:50 AM63 °FFog.3 mph100%30.04 "Hg1 mi
3:20 AM63 °FLight rain. Fog.5 mph94%30.04 "Hg1 mi
2:50 AM63 °FFog.3 mph94%30.04 "Hg2 mi
2:20 AM63 °FFog.1 mph94%30.04 "Hg2 mi
1:50 AM63 °FDrizzle. Fog.1 mph94%30.04 "Hg2 mi
1:20 AM63 °FFog.2 mph94%30.04 "Hg3 mi
12:50 AM63 °FFog.2 mph94%30.04 "Hg2 mi
12:20 AM63 °FLight rain. Passing clouds.7 mph94%30.04 "Hg3 mi
11:50 PM
Sep 16
63 °FLight rain. Partly cloudy.8 mph94%30.04 "Hg4 mi
11:20 PM64 °FPassing clouds.3 mph88%30.04 "HgN/A
10:50 PM64 °FPartly cloudy.1 mph88%30.04 "HgN/A
10:20 PM63 °FPassing clouds.2 mph94%30.04 "HgN/A
9:50 PM63 °FPassing clouds.2 mph94%30.04 "Hg6 mi
9:20 PM63 °FPassing clouds.2 mph94%30.04 "Hg6 mi
8:50 PM64 °FPassing clouds.No wind88%30.01 "Hg6 mi
8:20 PM64 °FPassing clouds.2 mph88%30.01 "Hg6 mi
7:50 PM66 °FPassing clouds.1 mph88%29.98 "Hg6 mi
7:20 PM68 °FPassing clouds.2 mph83%29.98 "HgN/A
6:50 PM70 °FPassing clouds.1 mph83%29.98 "HgN/A
6:20 PM72 °FScattered clouds.2 mph69%29.98 "HgN/A
5:50 PM72 °FScattered clouds.3 mph73%29.98 "HgN/A
5:20 PM72 °FPartly sunny.3 mph73%29.98 "Hg6 mi
4:50 PM72 °FPartly sunny.3 mph73%29.98 "Hg6 mi
4:20 PM72 °FPartly sunny.2 mph73%29.98 "Hg6 mi
3:50 PM72 °FScattered clouds.3 mph69%30.01 "Hg6 mi
3:20 PM73 °FScattered clouds.5 mph65%30.01 "Hg6 mi
2:50 PM73 °FScattered clouds.5 mph65%30.01 "Hg6 mi
2:20 PM72 °FScattered clouds.5 mph65%30.01 "Hg6 mi
1:50 PM73 °FScattered clouds.3 mph65%30.01 "Hg5 mi
1:20 PM73 °FScattered clouds.3 mph65%30.01 "Hg5 mi
12:50 PM70 °FScattered clouds.3 mph73%30.04 "Hg4 mi
12:20 PM70 °FScattered clouds.2 mph73%30.04 "Hg4 mi
11:50 AM68 °FFog.1 mph83%30.04 "Hg3 mi
11:20 AM66 °FFog.1 mph83%30.04 "Hg3 mi
10:50 AM66 °FBroken clouds.2 mph88%30.04 "Hg4 mi
10:20 AM64 °FFog.1 mph88%30.04 "Hg3 mi
9:50 AM64 °FFog.1 mph88%30.04 "Hg3 mi
9:20 AM63 °FFog.1 mph94%30.04 "Hg3 mi
8:50 AM63 °FRain. Partly sunny.2 mph94%30.04 "Hg3 mi
8:20 AM63 °FHeavy rain. Fog.1 mph94%30.04 "Hg1 mi
7:50 AM63 °FRain. Passing clouds.2 mph94%30.04 "Hg4 mi
7:20 AM63 °FPassing clouds.5 mph88%30.04 "Hg4 mi
6:50 AM63 °FPassing clouds.1 mph88%30.01 "Hg4 mi
6:20 AM63 °FPassing clouds.5 mph88%30.01 "Hg4 mi
Weather by CustomWeather, © 2014

See weather overviewHow to use our weather pages